Tracking 31027 objects as of 19-Jul-2025
HD Live streaming from Space Station
objects crossing your sky now

TITAN 3C TRANSTAGE DEB

Track TITAN 3C TRANSTAGE DEB now!
10-day predictions


NORAD ID: 47713
Int'l Code: 2021-015Q
Perigee: 559.8 km
Apogee: 17,593.7 km
Inclination: 26.9 °
Period: 318.5 minutes
Semi major axis: 15447 km
RCS: Unknown
Launch date: February 28, 2021
Source: United States (US)
Launch site: SRIHARIKOTA (SRI)

Note: This is SATELLITE DEBRIS
Your satellite tracking list
FENGYUN 1C DEB
Track 1 satellite(s)




NASA's NSSDC Master Catalog

Two Line Element Set (TLE):
1 47713U 65108DS  25199.32031849  .00000034  00000-0  51983-4 0  9995
2 47713  26.8866 217.4129 5513416 110.0025 315.5173  4.52173583192195
Source of the keplerian elements: AFSPC